{"data":{"norad_id":49457,"epoch":"2026-05-24T23:12:44.807328Z","epoch_age_seconds":84784,"freshness":"FRESH","line1":"1 49457U 21104BB  26144.96718527  .00003597  00000+0  24412-3 0  9998","line2":"2 49457  53.2133 236.7056 0001366  92.8849 267.2299 15.08820737250299","mean_motion":15.08820737,"eccentricity":0.0001366,"inclination_deg":53.2133,"raan_deg":236.7056,"arg_perigee_deg":92.8849,"mean_anomaly_deg":267.2299,"bstar":0.00024412,"rev_number":25029,"period_min":95.438773121793,"perigee_km":538.85727837112,"apogee_km":540.74725937937,"semimajor_km":6917.9392688752,"source":"CELESTRAK","updated_at":"2026-05-25T13:38:16.829459Z"}}